Regional Weather Roundup
Issued by NWS

Home | Current Version | Previous Version | Text Only | Print | Product List | Glossary Off
Versions: 1 2 3 4 5 6 7 8 9 10 11 12 13 14 15 16 17 18 19 20 21 22 23 24 25 26 27 28 29 30 31 32 33 34 35 36 37 38 39 40 41 42 43 44 45 46 47 48 49 50

858
ASUS43 KFSD 281602
RWRSD

WEATHER ROUNDUP FOR SOUTH DAKOTA
NATIONAL WEATHER SERVICE SIOUX FALLS SD
1100 AM CDT SUN MAY 28 2017

NOTE: "FAIR" INDICATES FEW OR NO CLOUDS BELOW 12,000 FEET WITH NO
SIGNIFICANT WEATHER AND/OR OBSTRUCTIONS TO VISIBILITY.


SDZ001>005-009-010-012>017-281700-
NORTHWEST AND NORTH CENTRAL SOUTH DAKOTA

CITY           SKY/WX    TMP DP  RH WIND       PRES   REMARKS
BUFFALO          N/A     68  37  32 W20G26    30.00F
FAITH            N/A     68  36  30 N15G23    30.02S
MOBRIDGE       SUNNY     70  41  34 NW20      29.92F
$$

SDZ012>016-024>037-041>051-057-063-072>074-281700-
SOUTHWEST AND SOUTH CENTRAL SOUTH DAKOTA

CITY           SKY/WX    TMP DP  RH WIND       PRES   REMARKS
RAPID CTY ARPT MOSUNNY   69  36  29 N15       30.10S
PIERRE         SUNNY     70  40  33 NW18      29.97R
CUSTER         PTSUNNY   59  35  40 N10G18    30.18R
ELLSWORTH AFB  MOSUNNY   67  32  26 NW16G25   30.10R
PHILIP         SUNNY     70  37  29 NW13G23   30.03S
PINE RIDGE     CLOUDY    66  47  50 VRB7      30.12R
SPEARFISH      FAIR      63  37  39 NW13      30.14F
WINNER         FAIR      70  43  37 N16       29.99S
$$

SDZ004>011-016>023-039-040-281700-
NORTHEAST SOUTH DAKOTA

CITY           SKY/WX    TMP DP  RH WIND       PRES   REMARKS
ABERDEEN       MOSUNNY   70  37  29 NW30G39   29.87F
WATERTOWN      CLOUDY    64  44  48 NW16G26   29.86R
BROOKINGS      PTSUNNY   64  44  48 NW18      29.87S
SISSETON         N/A     67  48  50 NW22G31   29.81R
$$

SDZ017-020-022-023-036>040-048>070-281700-
SOUTHEAST SOUTH DAKOTA

CITY           SKY/WX    TMP DP  RH WIND       PRES   REMARKS
SIOUX FALLS    MOSUNNY   68  50  52 NW9       29.87S
HURON          SUNNY     69  44  40 NW21G26   29.89F
CHAMBERLAIN    SUNNY     72  41  32 NW22G31   29.96R
MITCHELL       SUNNY     70  45  40 N25G32    29.91R
YANKTON        SUNNY     67  51  56 W15       29.91R
$$

ABBREVIATIONS USED IN REMARKS
   TC - TEMPERATURE IN CELSIUS
  WCI - WIND CHILL INDEX
   HX - HEAT INDEX
  VSB - VISIBILITY





USA.gov is the U.S. government's official web portal to all federal, state and local government web resources and services.